This is the latest recevied weather packets stored in our database for station/object F6BIJ-13. If no packets are shown the sender has not sent any weather packets the latest 10 day(s).
| Time | Temp. | Humidity | Pressure | Rain* | Wind** | Luminosity | Snow |
|---|---|---|---|---|---|---|---|
| 1777546837 | 20.56° C | 52% | 1019.7 hPa | 0 mm | - | - | - |
| 1777546477 | 20.56° C | 52% | 1019.8 hPa | 0 mm | - | - | - |
| 1777545399 | 20° C | 50% | 1019.9 hPa | 0 mm | - | - | - |
| 1777545037 | 19.44° C | 52% | 1019.9 hPa | 0 mm | - | - | - |
| 1777544677 | 20° C | 51% | 1020 hPa | 0 mm | - | - | - |
| 1777544317 | 18.89° C | 53% | 1020 hPa | 0 mm | - | - | - |
| 1777543957 | 19.44° C | 53% | 1020 hPa | 0 mm | - | - | - |
| 1777543597 | 19.44° C | 53% | 1020 hPa | 0 mm | - | - | - |
| 1777542937 | 18.33° C | 57% | 1020 hPa | 0 mm | - | - | - |
| 1777542517 | 17.78° C | 52% | 1020.1 hPa | 0 mm | - | - | - |
| 1777542158 | 18.33° C | 52% | 1020.1 hPa | 0 mm | - | - | - |
| 1777541797 | 18.33° C | 52% | 1020.2 hPa | 0 mm | - | - | - |
| 1777541437 | 17.78° C | 55% | 1020.3 hPa | 0 mm | - | - | - |
| 1777541077 | 17.78° C | 53% | 1020.3 hPa | 0 mm | - | - | - |
| 1777540717 | 17.22° C | 55% | 1020.3 hPa | 0 mm | - | - | - |
| 1777540357 | 17.78° C | 54% | 1020.4 hPa | 0 mm | - | - | - |
| 1777539997 | 18.33° C | 54% | 1020.3 hPa | 0 mm | - | - | - |
| 1777539432 | 17.22° C | 50% | 1020.5 hPa | 0 mm | - | - | - |
| 1777539386 | 17.22° C | 53% | 1020.4 hPa | 0 mm | - | - | - |
| 1777539377 | 17.22° C | 51% | 1020.4 hPa | 0 mm | - | - | - |
| 1777539375 | 18.33° C | 53% | 1020.4 hPa | 0 mm | - | - | - |
| 1777539360 | 16.67° C | 54% | 1020.4 hPa | 0 mm | - | - | - |
| 1777537476 | 17.22° C | 50% | 1020.4 hPa | 0 mm | - | - | - |
| 1777537117 | 17.22° C | 51% | 1020.4 hPa | 0 mm | - | - | - |
| 1777536757 | 16.67° C | 49% | 1020.4 hPa | 0 mm | - | - | - |
* Rain latest 24 hours (hover to see other rain measurements)
** Current wind speed in m/s (hover to see current wind gust speed)